EHI
0 0 0 0 0 0 0 0 0 0 0 0 0 0 0 0 1 1 4 11 17 19 21 23 24 28 26 20 15 12 9 9 8 6 4 3 1 0 0 0 0 0 1 2 2 1 0 1 1
0 0 0 0 0 0 0 0 0 0 0 0 0 0 0 0 2 3 6 13 19 21 22 24 27 29 26 19 13 11 9 8 6 4 3 3 1 0 0 0 0 0 0 1 1 0 0 1 2
0 0 0 0 0 0 0 0 0 0 0 0 0 0 0 1 2 4 8 16 21 22 21 25 31 32 25 16 11 9 9 7 5 2 2 2 1 0 1 0 0 0 0 0 0 0 0 1 2
0 0 0 0 0 0 0 0 0 0 0 0 0 0 0 1 2 5 10 18 22 22 22 26 33 34 26 17 11 9 8 7 4 1 1 1 0 1 2 1 0 0 0 0 0 0 0 0 1
0 0 0 0 0 0 0 0 0 0 0 0 0 1 2 3 5 7 11 18 23 24 25 28 33 34 29 19 13 9 8 5 2 0 1 1 1 1 1 0 0 0 0 0 0 0 0 0 0
0 0 0 0 0 0 0 0 0 0 0 0 1 2 5 8 11 12 13 18 23 26 27 30 32 32 28 22 15 11 8 5 3 2 3 3 1 0 0 0 0 0 0 0 0 0 0 0 0
0 0 0 0 0 0 0 0 0 0 0 0 1 4 8 13 17 18 18 21 23 26 28 30 29 27 25 21 16 13 10 7 5 4 4 3 1 0 0 0 0 0 0 0 0 0 0 0 0
0 0 0 0 0 0 0 0 0 0 0 0 1 5 10 15 21 23 24 23 23 24 27 28 26 23 21 19 16 13 11 8 6 3 2 1 0 0 0 0 0 0 0 0 0 0 0 0 0
0 0 0 0 0 0 0 0 0 0 1 2 4 7 12 18 23 26 25 23 21 22 25 25 23 20 18 16 14 12 10 8 4 1 0 0 0 0 0 0 0 0 0 0 0 0 0 0 0
0 0 0 0 0 0 0 0 0 0 2 4 7 11 17 22 26 26 24 20 18 18 19 20 21 19 17 15 14 12 10 7 3 1 0 0 0 0 0 0 0 0 0 0 0 0 0 0 0
0 0 0 0 0 0 0 0 0 0 1 5 10 16 21 25 26 26 23 18 15 14 14 15 17 18 17 16 14 12 9 6 3 1 0 0 0 0 0 0 0 0 0 0 0 0 0 0 0
0 0 0 0 0 0 0 0 0 0 1 4 10 18 23 25 26 25 22 17 14 11 10 12 14 16 17 17 14 11 8 5 3 1 0 0 0 0 0 0 0 0 0 0 0 0 0 0 0
0 0 0 0 0 0 0 0 0 0 1 5 11 18 23 24 24 24 21 16 12 9 8 10 12 13 14 15 12 9 6 4 2 1 0 0 0 0 0 0 0 0 0 0 0 0 0 0 0
0 0 0 0 0 0 0 0 0 0 2 6 11 16 19 20 21 21 18 13 10 7 6 7 9 11 12 11 8 6 4 3 1 0 0 0 0 0 0 0 0 0 0 0 0 0 0 0 0
0 0 0 0 0 0 0 0 0 0 2 5 9 12 14 16 19 19 16 12 8 6 6 5 6 8 9 7 5 4 3 2 1 0 0 0 0 0 0 0 0 0 0 0 0 0 0 0 0
0 0 0 0 0 0 0 0 0 0 1 3 7 9 10 11 15 18 16 12 8 6 6 6 5 6 6 5 3 2 2 1 0 0 0 0 0 0 0 0 0 0 0 0 0 0 0 0 0
0 0 0 0 0 0 0 0 0 0 0 2 5 7 7 8 10 13 13 10 7 7 8 7 5 4 4 3 1 1 1 0 0 0 0 0 0 0 0 0 0 0 0 0 0 0 0 0 0
0 0 0 0 0 0 0 0 0 0 0 1 2 4 5 6 7 8 9 7 6 6 7 7 6 3 1 1 0 0 0 0 0 0 0 0 0 0 0 0 0 0 0 0 0 0 0 0 0
0 0 0 0 0 0 0 0 0 0 0 1 2 2 4 5 6 7 7 6 4 2 3 4 4 3 1 0 0 0 1 1 0 0 0 0 0 0 0 0 0 0 0 0 0 0 0 0 0
0 0 0 0 0 0 0 0 0 0 0 1 1 2 2 3 4 5 6 5 2 0 0 1 2 3 2 2 2 2 2 1 0 0 0 0 0 0 0 0 0 0 0 0 0 0 0 0 0
0 0 0 0 0 0 0 0 0 0 0 0 0 1 1 1 2 4 4 3 1 0 0 0 1 2 1 2 4 4 3 1 0 0 0 0 0 0 0 0 0 0 0 0 0 0 0 0 0
0 0 0 0 0 0 0 0 0 0 1 1 1 0 0 1 2 4 4 3 1 1 0 0 0 0 1 3 5 5 3 1 0 0 0 0 0 0 0 0 0 0 0 0 0 0 0 0 0
0 0 0 0 0 0 0 0 0 0 1 1 1 0 0 1 2 4 6 5 3 2 1 0 0 0 1 3 4 3 2 1 0 0 0 0 0 0 0 0 0 0 0 0 0 0 0 0 0
0 0 0 0 0 0 0 0 0 0 0 0 0 0 0 0 1 4 6 6 4 2 1 0 0 0 0 1 1 1 1 0 0 0 0 0 0 0 0 0 0 0 0 0 0 0 0 0 0
0 0 0 0 0 0 0 0 0 0 0 0 0 0 0 0 1 2 4 4 3 1 0 0 0 0 0 0 0 0 0 0 0 0 0 0 0 0 0 0 0 0 0 0 0 0 0 0 0
0 0 0 0 0 0 0 0 0 0 0 0 0 0 0 0 0 1 2 3 2 0 0 0 0 0 0 0 0 0 0 0 0 0 0 0 0 0 0 0 0 0 0 0 0 0 0 0 0
0 0 0 0 0 0 0 0 0 0 0 0 1 1 1 0 0 0 1 2 2 1 0 0 0 0 0 0 0 0 0 0 0 0 0 0 0 0 0 0 0 0 0 0 0 0 0 0 0
0 0 0 0 0 0 0 0 0 0 0 0 1 1 1 0 0 0 0 1 1 1 0 0 0 0 0 0 0 0 0 0 0 0 0 0 0 0 0 0 0 0 0 0 0 0 0 0 0
0 0 0 0 0 0 0 0 0 0 0 0 0 0 0 0 0 0 0 0 0 0 0 0 0 0 0 0 0 0 0 0 0 0 0 0 0 0 0 0 0 0 0 0 0 0 0 0 0
0 0 0 0 0 0 0 0 0 0 0 0 0 0 0 0 0 0 0 0 0 0 0 0 0 0 0 0 0 0 0 0 0 0 0 0 0 0 0 0 0 0 0 0 0 0 0 0 0
Wind_Speed
8 5 2 3 4 2 4 5 4 2 2 2 1 3 5 4 4 4 3 9 11 12 11 13 13 14 14 14 14 13 13 14 14 14 14 14 13 13 13 13 14 14 14 14 14 14 14 13 13
3 2 3 3 3 3 5 5 5 6 4 1 1 2 3 1 1 5 5 10 13 12 11 11 13 14 14 14 14 13 13 13 14 14 13 13 13 13 13 13 13 13 13 13 13 13 13 13 13
3 1 2 2 4 7 6 4 7 6 3 1 1 2 3 2 3 3 6 13 12 10 10 11 14 15 15 15 14 13 13 13 13 13 13 13 13 13 13 13 13 13 13 12 12 12 12 12 12
2 2 2 2 7 7 5 4 3 3 2 0 3 2 1 1 2 5 12 13 12 9 8 11 14 15 15 14 14 13 13 13 12 13 13 13 13 13 13 13 13 12 12 12 12 11 11 12 12
2 2 2 4 8 5 5 5 2 2 1 0 2 3 1 3 5 11 13 13 13 10 8 10 13 15 15 14 14 13 13 12 12 12 13 13 13 12 12 12 12 12 12 12 11 11 11 11 11
2 2 4 7 8 5 5 5 2 2 2 1 3 3 1 2 8 11 11 11 11 10 9 10 12 13 14 14 14 13 13 12 12 12 12 12 12 12 12 12 11 11 11 11 11 10 10 10 11
2 2 5 6 6 6 5 3 3 3 3 3 4 5 2 3 6 9 9 10 9 9 8 7 8 9 12 12 13 13 12 12 11 11 12 12 12 12 12 11 11 11 11 10 10 9 9 10 10
2 2 4 5 6 6 3 2 3 4 4 1 3 6 5 5 6 9 9 8 9 8 7 7 7 7 7 8 11 12 11 11 11 10 11 11 10 10 10 9 10 10 10 10 9 9 9 9 9
1 2 7 7 5 3 1 2 3 1 1 0 0 3 5 8 9 11 9 7 7 8 7 7 7 7 6 7 9 10 10 10 9 8 11 9 5 5 5 6 8 9 9 9 9 8 8 8 8
2 5 8 4 3 1 1 2 3 1 0 1 2 3 7 9 11 11 11 10 9 9 8 7 8 7 7 6 6 5 5 5 5 5 6 5 4 4 5 6 7 7 7 7 8 7 7 5 3
2 5 4 3 3 2 3 3 3 1 2 4 5 7 9 9 9 9 10 10 10 9 8 8 8 7 7 5 5 3 3 3 4 5 5 5 4 3 3 2 3 3 4 3 4 3 2 3 2
2 4 5 4 4 3 4 3 3 3 5 4 7 10 10 10 9 9 9 8 8 9 9 7 7 7 6 6 4 4 3 3 4 5 6 5 3 3 3 2 2 2 1 2 2 2 2 3 3
3 4 5 5 5 6 5 4 4 6 5 2 5 8 9 9 7 6 7 7 7 8 9 8 8 7 6 6 5 4 4 4 4 4 5 5 4 4 3 2 2 2 2 2 2 2 3 3 3
2 3 5 5 5 5 4 5 3 6 2 3 4 5 6 7 6 5 5 5 6 7 8 8 8 7 6 5 5 5 4 4 4 4 5 6 4 4 4 3 2 2 2 2 2 2 2 2 2
1 3 5 5 4 4 2 5 5 5 1 3 3 4 4 4 5 5 6 6 6 7 7 7 8 7 7 6 5 5 4 4 4 4 5 6 5 5 4 3 2 2 2 3 2 3 2 2 2
1 1 3 4 3 3 2 7 5 3 2 3 3 3 3 3 4 4 4 5 5 6 6 7 7 6 6 5 5 4 4 4 4 4 4 5 6 6 5 4 3 2 2 2 2 2 2 2 1
1 2 5 5 3 2 3 6 4 3 3 3 3 3 3 3 1 2 3 4 4 5 6 6 6 6 5 4 4 4 3 3 3 3 4 4 5 6 5 4 3 3 2 2 2 2 2 1 1
3 3 4 5 3 2 4 6 5 3 4 4 4 3 3 3 3 2 3 3 3 4 4 5 5 5 5 4 3 3 3 2 2 3 4 5 5 5 5 4 4 3 3 2 2 2 2 1 1
3 3 4 5 4 3 5 7 6 4 3 4 4 4 4 3 2 2 2 2 3 3 3 5 6 5 5 4 4 3 3 3 2 2 4 5 5 5 5 4 4 4 3 3 3 2 2 1 1
3 3 4 4 3 3 4 6 6 4 4 5 5 4 3 1 1 1 2 2 2 3 3 5 6 5 4 4 4 3 3 2 2 2 2 4 4 4 5 5 4 4 4 3 3 2 2 1 1
3 4 4 4 5 3 2 5 5 4 3 2 2 3 3 3 3 3 2 2 2 2 2 3 5 6 4 4 4 4 2 2 2 1 1 2 4 4 4 5 5 4 4 3 3 3 3 2 0
5 5 5 3 2 3 1 4 5 4 3 2 2 2 2 2 2 2 3 2 2 2 2 2 3 5 4 4 5 7 5 4 3 3 2 1 2 4 4 4 4 4 4 3 3 3 2 3 2
5 4 4 3 3 3 1 3 6 2 4 4 3 3 3 2 3 2 3 3 2 1 2 2 3 4 4 5 5 5 4 3 2 3 3 2 1 2 3 4 4 4 3 3 3 3 2 3 3
3 1 1 2 1 3 4 4 5 4 5 4 3 2 2 2 2 2 2 2 1 0 0 1 2 3 3 4 5 5 5 5 4 3 4 3 2 2 2 3 3 3 3 4 3 3 3 2 2
3 3 2 2 1 5 2 3 6 4 3 4 3 2 2 2 2 2 2 1 1 1 1 1 2 3 3 4 4 4 5 5 7 6 4 4 3 2 3 3 3 3 3 3 3 3 3 3 3
1 3 4 3 3 3 1 4 5 3 1 1 1 1 1 1 1 2 2 2 1 1 1 1 2 3 3 3 3 3 4 3 3 3 3 4 3 3 3 3 3 3 3 3 3 3 3 3 3
1 1 3 2 0 1 3 3 4 2 2 2 1 1 1 2 1 1 1 1 2 2 2 3 3 2 2 3 3 3 3 3 2 2 2 2 2 2 3 3 3 3 3 4 3 3 3 3 3
1 2 2 2 1 2 3 3 3 3 2 1 1 1 2 2 2 2 2 1 2 1 1 1 2 2 2 2 2 2 2 2 2 2 3 2 2 2 3 3 3 3 3 3 3 3 3 3 2
1 1 1 2 2 3 3 5 2 2 2 2 2 2 2 2 2 2 2 1 0 0 1 0 1 1 1 1 1 1 2 2 2 3 3 3 2 2 3 4 4 3 3 3 3 3 3 3 2
2 2 2 2 3 2 2 6 2 1 2 2 2 2 2 2 1 1 0 1 2 1 1 1 0 1 1 1 1 1 1 2 2 2 2 3 2 2 3 3 3 4 3 3 4 4 3 3 3
Wind_Direction
321 332 26 55 64 70 225 237 235 237 236 233 184 118 131 147 165 185 135 137 134 146 151 148 144 139 133 128 124 122 121 121 117 115 113 111 111 112 111 110 106 103 101 98 97 95 93 92 90
331 352 45 68 125 192 239 231 228 233 217 194 54 99 90 94 95 113 125 142 141 145 148 149 144 139 135 130 126 123 124 124 122 118 116 115 114 114 113 112 108 105 102 100 98 97 96 94 91
324 31 93 111 178 199 213 218 224 248 253 185 74 60 117 133 131 141 149 143 138 142 146 149 143 139 136 133 131 127 125 124 125 122 120 119 117 115 114 113 110 107 105 102 100 98 97 95 93
50 48 67 162 219 220 210 220 221 261 309 21 119 72 56 78 162 145 139 138 136 138 143 148 143 141 138 135 133 130 128 125 126 126 123 122 119 116 113 112 112 111 109 105 103 100 99 97 95
62 99 152 226 235 237 236 248 231 240 249 276 114 118 23 347 114 128 136 138 138 137 140 145 144 143 140 137 135 132 129 128 126 129 128 124 121 119 115 112 113 114 113 110 106 102 99 97 96
84 124 183 219 233 241 249 253 257 251 247 222 120 126 150 107 122 136 137 138 137 139 139 141 143 142 141 139 136 133 131 131 126 128 128 126 123 121 119 116 115 115 115 113 110 106 102 98 95
149 174 210 214 227 242 244 250 227 244 244 223 146 125 143 148 138 135 132 131 131 135 135 135 136 136 140 139 137 135 134 133 129 128 124 123 125 123 122 120 118 117 117 116 114 111 106 100 97
158 161 219 216 214 234 261 262 232 220 234 225 130 143 174 184 144 128 124 127 131 134 136 137 134 133 133 137 134 132 132 131 129 124 118 115 115 118 119 119 119 119 119 118 117 116 108 99 97
101 187 223 216 204 217 257 269 290 246 158 39 143 172 170 146 135 129 128 131 140 144 144 140 139 137 134 134 136 133 131 128 124 121 116 111 104 104 106 113 116 120 121 120 117 114 106 95 96
159 211 228 226 205 216 277 281 296 338 43 340 19 57 118 133 138 143 151 156 158 159 158 150 146 146 142 139 131 132 131 128 125 125 122 118 114 108 104 103 106 108 108 112 111 106 98 89 85
201 222 240 264 271 281 285 299 310 192 233 210 169 153 145 143 146 151 161 165 167 163 161 160 155 152 147 139 138 131 129 131 131 131 127 124 115 108 97 91 91 92 90 87 91 85 81 92 99
229 267 267 278 308 305 277 289 303 262 243 231 174 159 154 154 158 163 164 167 166 166 166 162 158 155 150 145 145 141 139 142 144 142 137 133 128 122 119 110 100 88 89 95 87 83 80 90 99
237 266 284 289 296 283 273 270 273 281 279 181 156 153 163 160 161 164 164 167 166 171 169 165 159 156 152 149 152 148 150 151 151 148 148 145 142 142 135 130 123 108 102 103 100 99 91 82 83
227 272 290 288 295 284 267 273 264 274 273 148 147 163 168 158 154 147 151 159 165 168 169 165 165 161 153 153 155 154 156 155 150 153 156 152 148 148 144 138 136 130 125 121 115 110 101 89 87
267 298 300 276 269 275 286 286 246 267 214 154 165 168 162 157 147 154 162 167 172 165 163 164 166 160 158 157 156 154 160 161 157 155 157 157 152 152 148 143 144 144 131 118 108 97 86 80 76
48 285 276 272 244 259 217 251 260 267 162 194 192 176 166 175 172 169 161 158 161 161 163 169 166 161 161 160 155 158 162 160 158 156 154 156 155 152 148 144 149 142 128 124 121 114 96 86 90
127 228 250 271 244 232 214 248 266 264 167 203 206 192 186 184 175 174 158 156 153 161 165 168 160 159 159 153 147 148 147 155 155 152 155 155 154 154 148 147 150 138 126 122 132 114 118 113 87
211 224 247 246 263 253 238 253 270 257 204 208 205 209 199 197 203 182 158 152 150 153 153 154 150 152 148 140 126 122 125 139 142 156 159 154 154 153 146 143 146 141 130 125 127 119 98 115 124
212 228 252 258 284 284 253 259 269 249 228 214 206 206 208 205 201 157 137 134 139 145 137 153 155 160 156 152 152 159 167 166 153 165 158 154 155 152 150 148 147 148 146 153 151 134 115 75 73
227 257 273 282 282 282 266 266 271 254 226 215 203 212 212 198 163 154 133 129 144 161 157 161 167 169 174 172 165 165 159 155 150 136 142 153 154 156 153 155 158 159 148 145 148 135 130 103 89
245 232 247 261 306 284 266 280 272 274 263 234 221 213 200 194 190 182 164 155 155 160 175 173 176 170 173 156 130 117 100 98 97 118 149 166 162 158 155 156 158 158 155 163 167 158 151 161 160
252 243 242 248 277 273 196 251 263 258 263 259 262 238 206 206 184 168 165 164 165 182 186 171 158 158 159 154 156 156 160 169 179 179 175 144 160 159 154 154 156 159 159 164 171 164 160 155 171
242 258 240 241 232 274 252 217 269 256 245 250 244 225 213 196 167 163 165 174 185 187 169 169 158 154 157 158 166 167 165 166 150 150 153 148 152 163 158 157 154 161 162 167 163 162 163 165 169
268 321 9 17 75 259 231 196 261 241 228 231 229 217 222 202 179 176 155 134 119 70 106 140 157 164 157 152 166 172 171 163 153 164 172 170 164 172 171 166 165 167 167 173 176 171 168 172 165
35 72 33 352 333 247 225 199 245 249 226 205 200 217 227 201 182 174 149 144 141 146 146 151 166 173 168 164 169 171 174 175 174 177 182 177 176 184 194 183 178 174 178 175 170 169 178 177 168
266 141 159 205 224 272 273 224 248 272 231 161 174 185 223 212 210 196 183 186 204 202 179 171 175 182 177 175 176 177 175 176 181 180 179 186 193 197 192 189 184 179 178 173 169 173 182 173 178
121 187 194 154 283 269 264 278 298 1 29 37 36 33 328 272 254 227 205 210 223 211 202 198 188 183 185 182 172 170 172 172 175 173 165 174 184 181 181 185 186 180 177 173 170 177 180 171 183
161 157 93 122 157 266 281 265 270 315 318 318 276 259 277 296 304 291 238 219 232 220 228 214 186 189 185 174 177 168 170 165 159 155 169 170 178 176 175 182 183 180 178 175 173 173 175 168 187
14 54 105 142 172 184 246 265 249 258 287 272 274 283 291 294 275 267 260 239 243 352 253 185 142 158 160 162 154 155 157 154 153 163 173 163 164 175 188 185 177 174 177 180 174 179 171 175 188
190 184 158 165 237 210 211 268 316 319 309 304 306 316 319 307 279 261 328 51 43 25 16 42 58 158 178 163 155 167 156 149 159 171 172 164 169 180 181 178 175 174 178 182 183 184 177 180 188